| time (UTC) | temp F | wind direction | speed MPH | gust MPH | rain 1hr in | rain 24hr in | rain mn in | humidity % | barometer mb |
| 20260902044207 | 0 | 0 | 0.0 | 0.0 | 0.00 | 0.00 | 0.00 | 100 | |
| 20260902043750 | 0 | 0 | 0.0 | 0.0 | 0.00 | 0.00 | 0.00 | 100 | |
| 20260902043330 | 0 | 0 | 0.0 | 0.0 | 0.00 | 0.00 | 0.00 | 100 | |
| 20260902043249 | 0 | 0 | 0.0 | 0.0 | 0.00 | 0.00 | 0.00 | 100 | |
| 20260902042835 | 0 | 0 | 0.0 | 0.0 | 0.00 | 0.00 | 0.00 | 100 | |
| 20260902042404 | 0 | 0 | 0.0 | 0.0 | 0.00 | 0.00 | 0.00 | 100 | |
| 20260902041913 | 0 | 0 | 0.0 | 0.0 | 0.00 | 0.00 | 0.00 | 100 | |
| 20260902041556 | 0 | 0 | 0.0 | 0.0 | 0.00 | 0.00 | 0.00 | 100 | |
| 20260902041431 | 0 | 0 | 0.0 | 0.0 | 0.00 | 0.00 | 0.00 | 100 | |
| 20260902041012 | 71 | 292 | 1.0 | 2.0 | 0.00 | 0.00 | 0.00 | 9 | 1014.3 |
| 20260902040610 | 71 | 292 | 1.0 | 2.0 | 0.00 | 0.00 | 0.00 | 9 | 1014.2 |
| 20260902040558 | 71 | 292 | 1.0 | 2.0 | 0.00 | 0.00 | 0.00 | 9 | 1014.3 |
| 20260902040126 | 71 | 292 | 1.0 | 2.0 | 0.00 | 0.00 | 0.00 | 9 | 1014.3 |
| 20260902035701 | 71 | 315 | 2.0 | 2.0 | 0.00 | 0.00 | 0.00 | 9 | 1014.4 |
| 20260902035212 | 71 | 292 | 1.0 | 2.0 | 0.00 | 0.00 | 0.00 | 9 | 1014.4 |
| 20260902034722 | 71 | 292 | 0.0 | 1.0 | 0.00 | 0.00 | 0.00 | 9 | 1014.2 |
| 20260902034249 | 71 | 292 | 2.0 | 2.0 | 0.00 | 0.00 | 0.00 | 9 | 1014.4 |
| 20260902033841 | 71 | 292 | 2.0 | 3.0 | 0.00 | 0.00 | 0.00 | 9 | 1014.4 |
| 20260902033353 | 72 | 247 | 2.0 | 3.0 | 0.00 | 0.00 | 0.00 | 9 | 1014.4 |
| 20260902032854 | 0 | 0 | 0.0 | 0.0 | 0.00 | 0.00 | 0.00 | 100 | |
| 20260902032506 | 0 | 0 | 0.0 | 0.0 | 0.00 | 0.00 | 0.00 | 100 | |
| 20260902032357 | 72 | 0 | 0.0 | 0.0 | 0.00 | 0.00 | 0.00 | 9 | 1014.4 |
| 20260902031939 | 72 | 0 | 0.0 | 0.0 | 0.00 | 0.00 | 0.00 | 9 | 1014.5 |
| 20260902031519 | 72 | 0 | 0.0 | 0.0 | 0.00 | 0.00 | 0.00 | 9 | 1014.5 |
| 20260902031035 | 71 | 0 | 0.0 | 0.0 | 0.00 | 0.00 | 0.00 | 9 | 1014.5 |
| 20260902030652 | 71 | 0 | 0.0 | 0.0 | 0.00 | 0.00 | 0.00 | 9 | 1014.5 |
| 20260902030619 | 71 | 0 | 0.0 | 0.0 | 0.00 | 0.00 | 0.00 | 9 | 1014.5 |
| 20260902030154 | 72 | 270 | 1.0 | 2.0 | 0.00 | 0.00 | 0.00 | 9 | 1014.6 |
| 20260902025701 | 72 | 270 | 3.0 | 3.0 | 0.00 | 0.00 | 0.00 | 9 | 1014.6 |
| 20260902025659 | 72 | 270 | 3.0 | 3.0 | 0.00 | 0.00 | 0.00 | 9 | 1014.6 |
| 20260902025359 | 72 | 270 | 3.0 | 3.0 | 0.00 | 0.00 | 0.00 | 9 | 1014.6 |
| 20260902024958 | 72 | 270 | 3.0 | 3.0 | 0.00 | 0.00 | 0.00 | 9 | 1014.6 |
| 20260902024528 | 72 | 225 | 1.0 | 2.0 | 0.00 | 0.00 | 0.00 | 9 | 1014.7 |
| 20260902024124 | 72 | 247 | 2.0 | 2.0 | 0.00 | 0.00 | 0.00 | 9 | 1014.8 |
| 20260902023704 | 73 | 270 | 1.0 | 2.0 | 0.00 | 0.00 | 0.00 | 9 | 1014.6 |
| 20260902023239 | 73 | 292 | 0.0 | 1.0 | 0.00 | 0.00 | 0.00 | 9 | 1014.7 |
| 20260902022744 | 72 | 292 | 2.0 | 2.0 | 0.00 | 0.00 | 0.00 | 9 | 1014.8 |
| 20260902022419 | 72 | 292 | 1.0 | 2.0 | 0.00 | 0.00 | 0.00 | 9 | 1014.6 |
| 20260902021956 | 72 | 270 | 2.0 | 3.0 | 0.00 | 0.00 | 0.00 | 9 | 1014.7 |
| 20260902021508 | 72 | 270 | 2.0 | 2.0 | 0.00 | 0.00 | 0.00 | 9 | 1014.6 |
| 20260902021019 | 72 | 270 | 1.0 | 1.0 | 0.00 | 0.00 | 0.00 | 9 | 1014.5 |
| 20260902020616 | 72 | 270 | 1.0 | 2.0 | 0.00 | 0.00 | 0.00 | 9 | 1014.5 |
| 20260902020124 | 72 | 292 | 2.0 | 3.0 | 0.00 | 0.00 | 0.00 | 9 | 1014.6 |
| 20260902015659 | 73 | 270 | 2.0 | 3.0 | 0.00 | 0.00 | 0.00 | 9 | 1014.5 |
| 20260902015356 | 73 | 270 | 2.0 | 3.0 | 0.00 | 0.00 | 0.00 | 9 | 1014.5 |
| 20260902015321 | 73 | 270 | 2.0 | 3.0 | 0.00 | 0.00 | 0.00 | 9 | 1014.5 |
| 20260902014924 | 73 | 247 | 2.0 | 2.0 | 0.00 | 0.00 | 0.00 | 9 | 1014.5 |
| 20260902014435 | 73 | 292 | 2.0 | 3.0 | 0.00 | 0.00 | 0.00 | 9 | 1014.6 |
| 20260902014034 | 74 | 270 | 1.0 | 2.0 | 0.00 | 0.00 | 0.00 | 9 | 1014.5 |
| 20260902013547 | 73 | 292 | 1.0 | 2.0 | 0.00 | 0.00 | 0.00 | 9 | 1014.8 |
| 20260902013119 | 73 | 270 | 2.0 | 2.0 | 0.00 | 0.00 | 0.00 | 9 | 1014.6 |
| 20260902012655 | 74 | 292 | 2.0 | 2.0 | 0.00 | 0.00 | 0.00 | 9 | 1014.8 |
| 20260902012316 | 74 | 292 | 2.0 | 2.0 | 0.00 | 0.00 | 0.00 | 9 | 1014.8 |
| 20260902012309 | 74 | 292 | 2.0 | 3.0 | 0.00 | 0.00 | 0.00 | 9 | 1015.0 |
| 20260902011853 | 74 | 292 | 2.0 | 2.0 | 0.00 | 0.00 | 0.00 | 9 | 1015.0 |
| 20260902011438 | 73 | 292 | 3.0 | 3.0 | 0.00 | 0.00 | 0.00 | 9 | 1014.9 |
| 20260902011009 | 73 | 270 | 2.0 | 3.0 | 0.00 | 0.00 | 0.00 | 9 | 1015.0 |
| 20260902010608 | 73 | 270 | 3.0 | 3.0 | 0.00 | 0.00 | 0.00 | 9 | 1015.0 |
| 20260902010551 | 73 | 292 | 2.0 | 3.0 | 0.00 | 0.00 | 0.00 | 9 | 1014.8 |
| 20260902010124 | 73 | 292 | 1.0 | 2.0 | 0.00 | 0.00 | 0.00 | 9 | 1014.9 |
| 20260902005702 | 73 | 292 | 2.0 | 3.0 | 0.00 | 0.00 | 0.00 | 9 | 1014.8 |
| 20260902005659 | 73 | 292 | 2.0 | 3.0 | 0.00 | 0.00 | 0.00 | 9 | 1014.8 |
| 20260902005426 | 73 | 315 | 2.0 | 2.0 | 0.00 | 0.00 | 0.00 | 9 | 1014.8 |
| 20260902005320 | 73 | 315 | 2.0 | 3.0 | 0.00 | 0.00 | 0.00 | 9 | 1014.8 |
| 20260902004949 | 73 | 292 | 3.0 | 4.0 | 0.00 | 0.00 | 0.00 | 9 | 1014.8 |
| 20260902004508 | 73 | 292 | 3.0 | 4.0 | 0.00 | 0.00 | 0.00 | 9 | 1014.9 |
| 20260902004435 | 73 | 292 | 3.0 | 6.0 | 0.00 | 0.00 | 0.00 | 9 | 1014.8 |
| 20260902004042 | 73 | 292 | 3.0 | 6.0 | 0.00 | 0.00 | 0.00 | 9 | 1014.9 |
| 20260902003603 | 73 | 292 | 3.0 | 4.0 | 0.00 | 0.00 | 0.00 | 9 | 1014.8 |
| 20260902003546 | 73 | 292 | 3.0 | 4.0 | 0.00 | 0.00 | 0.00 | 9 | 1014.9 |
| 20260902003119 | 73 | 292 | 3.0 | 4.0 | 0.00 | 0.00 | 0.00 | 9 | 1014.9 |
| 20260902002656 | 73 | 292 | 3.0 | 3.0 | 0.00 | 0.00 | 0.00 | 9 | 1015.0 |
| 20260902002654 | 73 | 292 | 3.0 | 3.0 | 0.00 | 0.00 | 0.00 | 9 | 1015.0 |
| 20260902002442 | 74 | 292 | 3.0 | 3.0 | 0.00 | 0.00 | 0.00 | 9 | 1015.0 |
| 20260902001946 | 74 | 292 | 3.0 | 6.0 | 0.00 | 0.00 | 0.00 | 9 | 1014.9 |
| 20260902001503 | 74 | 292 | 3.0 | 3.0 | 0.00 | 0.00 | 0.00 | 9 | 1014.9 |
| 20260902001039 | 74 | 292 | 3.0 | 4.0 | 0.00 | 0.00 | 0.00 | 9 | 1015.0 |
| 20260902000609 | 74 | 292 | 3.0 | 4.0 | 0.00 | 0.00 | 0.00 | 9 | 1014.9 |
| 20260902000124 | 74 | 292 | 3.0 | 3.0 | 0.00 | 0.00 | 0.00 | 9 | 1015.0 |
| 20260901235659 | 74 | 315 | 3.0 | 4.0 | 0.00 | 0.00 | 0.00 | 9 | 1015.0 |
| 20260901235454 | 74 | 315 | 3.0 | 4.0 | 0.00 | 0.00 | 0.00 | 9 | 1015.0 |
| 20260901235052 | 73 | 292 | 3.0 | 3.0 | 0.00 | 0.00 | 0.00 | 9 | 1014.9 |
| 20260901234632 | 73 | 292 | 3.0 | 3.0 | 0.00 | 0.00 | 0.00 | 9 | 1015.1 |
| 20260901234140 | 73 | 292 | 2.0 | 3.0 | 0.00 | 0.00 | 0.00 | 9 | 1015.0 |
| 20260901233649 | 73 | 292 | 2.0 | 2.0 | 0.00 | 0.00 | 0.00 | 9 | 1015.0 |
| 20260901233202 | 73 | 292 | 2.0 | 2.0 | 0.00 | 0.00 | 0.00 | 9 | 1014.9 |
| 20260901232751 | 73 | 292 | 1.0 | 2.0 | 0.00 | 0.00 | 0.00 | 9 | 1015.0 |
| 20260901232454 | 73 | 292 | 1.0 | 2.0 | 0.00 | 0.00 | 0.00 | 9 | 1014.9 |
| 20260901232411 | 73 | 292 | 1.0 | 2.0 | 0.00 | 0.00 | 0.00 | 9 | 1014.9 |
| 20260901231918 | 73 | 292 | 2.0 | 2.0 | 0.00 | 0.00 | 0.00 | 9 | 1015.0 |
| 20260901231507 | 73 | 292 | 2.0 | 2.0 | 0.00 | 0.00 | 0.00 | 9 | 1015.0 |
| 20260901231443 | 73 | 292 | 1.0 | 2.0 | 0.00 | 0.00 | 0.00 | 9 | 1015.0 |
| 20260901231018 | 73 | 292 | 2.0 | 2.0 | 0.00 | 0.00 | 0.00 | 9 | 1015.0 |
| 20260901230649 | 73 | 292 | 2.0 | 3.0 | 0.00 | 0.00 | 0.00 | 9 | 1015.1 |
| 20260901230603 | 73 | 292 | 2.0 | 3.0 | 0.00 | 0.00 | 0.00 | 9 | 1015.1 |
| 20260901230155 | 73 | 292 | 2.0 | 2.0 | 0.00 | 0.00 | 0.00 | 9 | 1015.1 |
| 20260901225703 | 74 | 292 | 2.0 | 2.0 | 0.00 | 0.00 | 0.00 | 9 | 1015.0 |
| 20260901225420 | 74 | 292 | 1.0 | 2.0 | 0.00 | 0.00 | 0.00 | 9 | 1015.1 |
| 20260901224932 | 74 | 0 | 0.0 | 0.0 | 0.00 | 0.00 | 0.00 | 9 | 1014.9 |
| 20260901224510 | 73 | 0 | 0.0 | 2.0 | 0.00 | 0.00 | 0.00 | 9 | 1015.0 |
| 20260901224044 | 74 | 0 | 0.0 | 1.0 | 0.00 | 0.00 | 0.00 | 9 | 1014.9 |
| 20260901223610 | 74 | 0 | 0.0 | 0.0 | 0.00 | 0.00 | 0.00 | 9 | 1014.9 |
| 20260901223552 | 74 | 0 | 0.0 | 0.0 | 0.00 | 0.00 | 0.00 | 9 | 1014.9 |
| 20260901223142 | 74 | 0 | 0.0 | 0.0 | 0.00 | 0.00 | 0.00 | 9 | 1014.9 |
| 20260901222735 | 74 | 315 | 0.0 | 1.0 | 0.00 | 0.00 | 0.00 | 9 | 1014.9 |
| 20260901222401 | 74 | 292 | 1.0 | 2.0 | 0.00 | 0.00 | 0.00 | 9 | 1014.9 |
| 20260901221910 | 74 | 292 | 3.0 | 3.0 | 0.00 | 0.00 | 0.00 | 9 | 1014.8 |
| 20260901221441 | 74 | 292 | 2.0 | 2.0 | 0.00 | 0.00 | 0.00 | 9 | 1014.7 |
| 20260901221028 | 74 | 270 | 2.0 | 2.0 | 0.00 | 0.00 | 0.00 | 9 | 1014.8 |
| 20260901220618 | 74 | 270 | 2.0 | 2.0 | 0.00 | 0.00 | 0.00 | 9 | 1014.7 |
| 20260901220549 | 74 | 270 | 1.0 | 2.0 | 0.00 | 0.00 | 0.00 | 9 | 1014.8 |
| 20260901220125 | 75 | 0 | 0.0 | 0.0 | 0.00 | 0.00 | 0.00 | 9 | 1014.6 |
| 20260901215659 | 75 | 0 | 0.0 | 0.0 | 0.00 | 0.00 | 0.00 | 9 | 1014.8 |
| 20260901215353 | 75 | 0 | 0.0 | 0.0 | 0.00 | 0.00 | 0.00 | 9 | 1014.7 |
| 20260901214934 | 75 | 0 | 0.0 | 0.0 | 0.00 | 0.00 | 0.00 | 9 | 1014.6 |
| 20260901214645 | 74 | 0 | 0.0 | 0.0 | 0.00 | 0.00 | 0.00 | 9 | 1014.6 |
| 20260901214515 | 74 | 0 | 0.0 | 1.0 | 0.00 | 0.00 | 0.00 | 9 | 1014.8 |
| 20260901214030 | 75 | 0 | 0.0 | 0.0 | 0.00 | 0.00 | 0.00 | 9 | 1014.8 |
| 20260901213646 | 75 | 0 | 0.0 | 0.0 | 0.00 | 0.00 | 0.00 | 9 | 1014.8 |
| 20260901213614 | 75 | 0 | 0.0 | 0.0 | 0.00 | 0.00 | 0.00 | 9 | 1014.8 |
| 20260901213149 | 75 | 0 | 0.0 | 0.0 | 0.00 | 0.00 | 0.00 | 9 | 1014.6 |
| 20260901212656 | 75 | 0 | 0.0 | 0.0 | 0.00 | 0.00 | 0.00 | 9 | 1014.7 |
| 20260901212654 | 75 | 0 | 0.0 | 0.0 | 0.00 | 0.00 | 0.00 | 9 | 1014.7 |
| 20260901212433 | 75 | 0 | 0.0 | 0.0 | 0.00 | 0.00 | 0.00 | 9 | 1014.7 |
| 20260901211935 | 74 | 0 | 0.0 | 1.0 | 0.00 | 0.00 | 0.00 | 9 | 1014.8 |
| 20260901211641 | 75 | 0 | 0.0 | 0.0 | 0.00 | 0.00 | 0.00 | 9 | 1014.7 |
| 20260901211452 | 75 | 270 | 0.0 | 1.0 | 0.00 | 0.00 | 0.00 | 9 | 1014.8 |
| 20260901211028 | 75 | 270 | 1.0 | 2.0 | 0.00 | 0.00 | 0.00 | 9 | 1014.8 |
| 20260901210642 | 75 | 292 | 1.0 | 2.0 | 0.00 | 0.00 | 0.00 | 9 | 1014.8 |
| 20260901210609 | 75 | 292 | 1.0 | 2.0 | 0.00 | 0.00 | 0.00 | 9 | 1014.8 |
| 20260901210144 | 75 | 270 | 2.0 | 2.0 | 0.00 | 0.00 | 0.00 | 9 | 1014.8 |
| 20260901205653 | 75 | 292 | 2.0 | 2.0 | 0.00 | 0.00 | 0.00 | 9 | 1014.7 |
| 20260901205650 | 75 | 292 | 2.0 | 2.0 | 0.00 | 0.00 | 0.00 | 9 | 1014.7 |
| 20260901205314 | 75 | 292 | 2.0 | 3.0 | 0.00 | 0.00 | 0.00 | 9 | 1014.7 |
| 20260901205307 | 75 | 270 | 2.0 | 3.0 | 0.00 | 0.00 | 0.00 | 9 | 1014.8 |
| 20260901204845 | 75 | 270 | 3.0 | 3.0 | 0.00 | 0.00 | 0.00 | 9 | 1014.7 |
| 20260901204432 | 75 | 270 | 3.0 | 3.0 | 0.00 | 0.00 | 0.00 | 9 | 1014.5 |
| 20260901204002 | 75 | 180 | 2.0 | 3.0 | 0.00 | 0.00 | 0.00 | 9 | 1014.6 |
| 20260901203601 | 76 | 180 | 1.0 | 2.0 | 0.00 | 0.00 | 0.00 | 9 | 1014.6 |
| 20260901203544 | 76 | 180 | 1.0 | 2.0 | 0.00 | 0.00 | 0.00 | 9 | 1014.5 |
| 20260901203117 | 76 | 180 | 2.0 | 3.0 | 0.00 | 0.00 | 0.00 | 9 | 1014.6 |
| 20260901202655 | 76 | 0 | 0.0 | 0.0 | 0.00 | 0.00 | 0.00 | 9 | 1014.3 |
| 20260901202652 | 76 | 0 | 0.0 | 0.0 | 0.00 | 0.00 | 0.00 | 9 | 1014.3 |
| 20260901202257 | 76 | 0 | 0.0 | 0.0 | 0.00 | 0.00 | 0.00 | 9 | 1014.3 |
| 20260901201852 | 77 | 0 | 0.0 | 0.0 | 0.00 | 0.00 | 0.00 | 8 | 1014.3 |
| 20260901201438 | 77 | 0 | 0.0 | 0.0 | 0.00 | 0.00 | 0.00 | 8 | 1014.3 |
| 20260901201007 | 77 | 0 | 0.0 | 0.0 | 0.00 | 0.00 | 0.00 | 8 | 1014.5 |
| 20260901200549 | 77 | 0 | 0.0 | 0.0 | 0.00 | 0.00 | 0.00 | 8 | 1014.4 |
| 20260901200122 | 78 | 90 | 0.0 | 2.0 | 0.00 | 0.00 | 0.00 | 8 | 1014.2 |
| 20260901195657 | 77 | 135 | 1.0 | 2.0 | 0.00 | 0.00 | 0.00 | 8 | 1014.2 |
| 20260901195500 | 77 | 0 | 0.0 | 0.0 | 0.00 | 0.00 | 0.00 | 8 | 1014.2 |
| 20260901195404 | 77 | 0 | 0.0 | 1.0 | 0.00 | 0.00 | 0.00 | 8 | 1014.2 |
| 20260901194909 | 78 | 90 | 0.0 | 2.0 | 0.00 | 0.00 | 0.00 | 8 | 1014.1 |
| 20260901194535 | 77 | 112 | 1.0 | 3.0 | 0.00 | 0.00 | 0.00 | 8 | 1013.7 |
| 20260901194435 | 77 | 90 | 2.0 | 3.0 | 0.00 | 0.00 | 0.00 | 8 | 1013.6 |
| 20260901194034 | 77 | 112 | 3.0 | 4.0 | 0.00 | 0.00 | 0.00 | 8 | 1013.7 |
| 20260901193647 | 77 | 0 | 0.0 | 0.0 | 0.00 | 0.00 | 0.00 | 8 | 1013.8 |
| 20260901193613 | 77 | 0 | 0.0 | 0.0 | 0.00 | 0.00 | 0.00 | 8 | 1013.8 |
| 20260901193149 | 77 | 0 | 0.0 | 0.0 | 0.00 | 0.00 | 0.00 | 8 | 1013.8 |
| 20260901192654 | 77 | 0 | 0.0 | 0.0 | 0.00 | 0.00 | 0.00 | 8 | 1013.6 |
| 20260901192438 | 77 | 0 | 0.0 | 1.0 | 0.00 | 0.00 | 0.00 | 8 | 1013.8 |
| 20260901191955 | 77 | 90 | 1.0 | 2.0 | 0.00 | 0.00 | 0.00 | 8 | 1013.3 |
| 20260901191508 | 78 | 112 | 3.0 | 4.0 | 0.00 | 0.00 | 0.00 | 8 | 1013.3 |
| 20260901191036 | 77 | 90 | 2.0 | 4.0 | 0.00 | 0.00 | 0.00 | 8 | 1013.4 |
| 20260901190618 | 78 | 90 | 1.0 | 3.0 | 0.00 | 0.00 | 0.00 | 8 | 1013.4 |
| 20260901190153 | 78 | 112 | 2.0 | 4.0 | 0.00 | 0.00 | 0.00 | 8 | 1013.4 |
| 20260901185658 | 78 | 90 | 3.0 | 6.0 | 0.00 | 0.00 | 0.00 | 8 | 1013.1 |
| 20260901185413 | 78 | 90 | 3.0 | 6.0 | 0.00 | 0.00 | 0.00 | 8 | 1013.2 |
| 20260901184946 | 78 | 90 | 3.0 | 6.0 | 0.00 | 0.00 | 0.00 | 8 | 1013.1 |
| 20260901184534 | 78 | 90 | 3.0 | 3.0 | 0.00 | 0.00 | 0.00 | 8 | 1012.9 |
| 20260901184102 | 78 | 112 | 3.0 | 4.0 | 0.00 | 0.00 | 0.00 | 8 | 1012.9 |
| 20260901183701 | 78 | 90 | 6.0 | 9.0 | 0.00 | 0.00 | 0.00 | 8 | 1012.9 |
| 20260901183218 | 78 | 112 | 5.0 | 6.0 | 0.00 | 0.00 | 0.00 | 8 | 1013.0 |
| 20260901182753 | 78 | 90 | 3.0 | 6.0 | 0.00 | 0.00 | 0.00 | 8 | 1012.8 |
| 20260901182433 | 78 | 112 | 4.0 | 6.0 | 0.00 | 0.00 | 0.00 | 8 | 1012.8 |
| 20260901181938 | 79 | 112 | 5.0 | 6.0 | 0.00 | 0.00 | 0.00 | 8 | 1012.8 |
| 20260901181519 | 79 | 90 | 3.0 | 6.0 | 0.00 | 0.00 | 0.00 | 8 | 1012.9 |
| 20260901181036 | 79 | 90 | 4.0 | 6.0 | 0.00 | 0.00 | 0.00 | 8 | 1013.0 |
| 20260901180619 | 79 | 67 | 6.0 | 10.0 | 0.00 | 0.00 | 0.00 | 8 | 1012.9 |
| 20260901180153 | 79 | 90 | 5.0 | 6.0 | 0.00 | 0.00 | 0.00 | 8 | 1013.1 |
| 20260901175659 | 79 | 67 | 3.0 | 6.0 | 0.00 | 0.00 | 0.00 | 8 | 1013.2 |
| 20260901175555 | 79 | 67 | 3.0 | 6.0 | 0.00 | 0.00 | 0.00 | 8 | 1013.2 |
| 20260901175446 | 79 | 67 | 3.0 | 6.0 | 0.00 | 0.00 | 0.00 | 8 | 1012.9 |
| 20260901174949 | 79 | 90 | 6.0 | 8.0 | 0.00 | 0.00 | 0.00 | 8 | 1012.9 |
| 20260901174656 | 79 | 90 | 6.0 | 9.0 | 0.00 | 0.00 | 0.00 | 8 | 1013.1 |
| 20260901174507 | 79 | 90 | 4.0 | 6.0 | 0.00 | 0.00 | 0.00 | 8 | 1013.1 |
| 20260901174043 | 79 | 90 | 5.0 | 8.0 | 0.00 | 0.00 | 0.00 | 8 | 1013.1 |
| 20260901173655 | 79 | 90 | 6.0 | 9.0 | 0.00 | 0.00 | 0.00 | 8 | 1013.2 |
| 20260901173624 | 79 | 90 | 6.0 | 9.0 | 0.00 | 0.00 | 0.00 | 8 | 1013.2 |
| 20260901173159 | 79 | 90 | 6.0 | 9.0 | 0.00 | 0.00 | 0.00 | 8 | 1013.1 |
| 20260901172706 | 80 | 135 | 6.0 | 8.0 | 0.00 | 0.00 | 0.00 | 8 | 1013.0 |
| 20260901172704 | 80 | 135 | 6.0 | 8.0 | 0.00 | 0.00 | 0.00 | 8 | 1013.0 |
| 20260901172409 | 80 | 135 | 6.0 | 8.0 | 0.00 | 0.00 | 0.00 | 8 | 1013.1 |
| 20260901172259 | 80 | 135 | 6.0 | 8.0 | 0.00 | 0.00 | 0.00 | 8 | 1012.9 |
| 20260901171833 | 80 | 135 | 6.0 | 8.0 | 0.00 | 0.00 | 0.00 | 8 | 1013.0 |
| 20260901171429 | 80 | 67 | 4.0 | 6.0 | 0.00 | 0.00 | 0.00 | 8 | 1013.1 |
| 20260901171008 | 80 | 112 | 7.0 | 10.0 | 0.00 | 0.00 | 0.00 | 8 | 1013.1 |
| 20260901170515 | 80 | 112 | 7.0 | 11.0 | 0.00 | 0.00 | 0.00 | 8 | 1013.0 |
| 20260901165656 | 80 | 135 | 9.0 | 11.0 | 0.00 | 0.00 | 0.00 | 8 | 1013.0 |
| 20260901165409 | 80 | 90 | 9.0 | 11.0 | 0.00 | 0.00 | 0.00 | 8 | 1013.0 |
| 20260901165353 | 81 | 67 | 7.0 | 11.0 | 0.00 | 0.00 | 0.00 | 8 | 1013.1 |
| 20260901164958 | 81 | 90 | 6.0 | 10.0 | 0.00 | 0.00 | 0.00 | 8 | 1013.0 |
| 20260901164518 | 81 | 67 | 4.0 | 6.0 | 0.00 | 0.00 | 0.00 | 8 | 1013.0 |
| 20260901164100 | 81 | 90 | 9.0 | 13.0 | 0.00 | 0.00 | 0.00 | 8 | 1013.1 |
| 20260901163640 | 81 | 90 | 5.0 | 8.0 | 0.00 | 0.00 | 0.00 | 8 | 1013.0 |
| 20260901163214 | 81 | 90 | 6.0 | 10.0 | 0.00 | 0.00 | 0.00 | 8 | 1012.9 |
| 20260901162750 | 81 | 112 | 9.0 | 13.0 | 0.00 | 0.00 | 0.00 | 8 | 1012.8 |
| 20260901162352 | 80 | 90 | 11.0 | 15.0 | 0.00 | 0.00 | 0.00 | 8 | 1013.0 |
| 20260901161948 | 81 | 67 | 9.0 | 12.0 | 0.00 | 0.00 | 0.00 | 8 | 1013.0 |
| 20260901161508 | 81 | 45 | 6.0 | 12.0 | 0.00 | 0.00 | 0.00 | 8 | 1013.0 |
| 20260901161045 | 80 | 67 | 9.0 | 12.0 | 0.00 | 0.00 | 0.00 | 8 | 1012.9 |
| 20260901160604 | 81 | 90 | 9.0 | 13.0 | 0.00 | 0.00 | 0.00 | 8 | 1013.0 |
| 20260901160120 | 81 | 67 | 11.0 | 13.0 | 0.00 | 0.00 | 0.00 | 8 | 1013.0 |
| 20260901155655 | 81 | 90 | 9.0 | 11.0 | 0.00 | 0.00 | 0.00 | 8 | 1013.1 |
| 20260901155543 | 81 | 90 | 9.0 | 11.0 | 0.00 | 0.00 | 0.00 | 8 | 1013.1 |
| 20260901155124 | 80 | 45 | 6.0 | 8.0 | 0.00 | 0.00 | 0.00 | 8 | 1012.8 |
| 20260901154702 | 80 | 90 | 7.0 | 12.0 | 0.00 | 0.00 | 0.00 | 8 | 1012.4 |
| 20260901154237 | 80 | 67 | 12.0 | 17.0 | 0.00 | 0.00 | 0.00 | 8 | 1012.2 |
| 20260901153819 | 80 | 112 | 12.0 | 15.0 | 0.00 | 0.00 | 0.00 | 8 | 1012.4 |
| 20260901153354 | 80 | 112 | 8.0 | 12.0 | 0.00 | 0.00 | 0.00 | 8 | 1012.6 |
| 20260901152859 | 79 | 112 | 8.0 | 11.0 | 0.00 | 0.00 | 0.00 | 8 | 1013.3 |
| 20260901152435 | 79 | 67 | 9.0 | 10.0 | 0.00 | 0.00 | 0.00 | 8 | 1013.7 |
| 20260901152002 | 79 | 67 | 6.0 | 10.0 | 0.00 | 0.00 | 0.00 | 8 | 1013.8 |
| 20260901151511 | 80 | 90 | 6.0 | 10.0 | 0.00 | 0.00 | 0.00 | 8 | 1013.7 |
| 20260901151040 | 80 | 112 | 6.0 | 11.0 | 0.00 | 0.00 | 0.00 | 8 | 1013.5 |
| 20260901150622 | 80 | 90 | 9.0 | 13.0 | 0.00 | 0.00 | 0.00 | 8 | 1013.3 |
| 20260901150157 | 80 | 90 | 8.0 | 15.0 | 0.00 | 0.00 | 0.00 | 8 | 1013.4 |
| 20260901145702 | 81 | 90 | 6.0 | 9.0 | 0.00 | 0.00 | 0.00 | 8 | 1013.9 |
| 20260901145332 | 81 | 90 | 5.0 | 8.0 | 0.00 | 0.00 | 0.00 | 8 | 1013.9 |
| 20260901145217 | 81 | 112 | 4.0 | 6.0 | 0.00 | 0.00 | 0.00 | 8 | 1013.9 |
| 20260901144836 | 81 | 67 | 3.0 | 4.0 | 0.00 | 0.00 | 0.00 | 7 | 1014.2 |
| 20260901144422 | 81 | 67 | 5.0 | 6.0 | 0.00 | 0.00 | 0.00 | 7 | 1014.2 |
| 20260901144254 | 81 | 90 | 5.0 | 9.0 | 0.00 | 0.00 | 0.00 | 7 | 1014.0 |
| 20260901143947 | 81 | 90 | 3.0 | 6.0 | 0.00 | 0.00 | 0.00 | 7 | 1014.1 |
| 20260901143451 | 81 | 112 | 6.0 | 10.0 | 0.00 | 0.00 | 0.00 | 7 | 1013.9 |
| 20260901143023 | 82 | 67 | 4.0 | 6.0 | 0.00 | 0.00 | 0.00 | 7 | 1013.9 |
| 20260901142613 | 81 | 67 | 6.0 | 9.0 | 0.00 | 0.00 | 0.00 | 7 | 1013.9 |
| 20260901142310 | 82 | 112 | 6.0 | 10.0 | 0.00 | 0.00 | 0.00 | 7 | 1014.0 |
| 20260901142153 | 82 | 90 | 6.0 | 11.0 | 0.00 | 0.00 | 0.00 | 7 | 1013.9 |
| 20260901141722 | 82 | 90 | 7.0 | 11.0 | 0.00 | 0.00 | 0.00 | 7 | 1013.6 |
| 20260901141443 | 82 | 90 | 8.0 | 11.0 | 0.00 | 0.00 | 0.00 | 7 | 1013.6 |
| 20260901141230 | 82 | 112 | 6.0 | 11.0 | 0.00 | 0.00 | 0.00 | 7 | 1013.5 |
| 20260901140750 | 82 | 135 | 6.0 | 10.0 | 0.00 | 0.00 | 0.00 | 8 | 1014.1 |
| 20260901140523 | 82 | 112 | 6.0 | 10.0 | 0.00 | 0.00 | 0.00 | 8 | 1014.3 |
| 20260901140251 | 82 | 90 | 5.0 | 9.0 | 0.00 | 0.00 | 0.00 | 8 | 1014.6 |
| 20260901135826 | 81 | 112 | 9.0 | 12.0 | 0.00 | 0.00 | 0.00 | 7 | 1014.4 |
| 20260901135627 | 81 | 90 | 9.0 | 13.0 | 0.00 | 0.00 | 0.00 | 7 | 1014.4 |
| 20260901135407 | 81 | 112 | 9.0 | 12.0 | 0.00 | 0.00 | 0.00 | 7 | 1014.4 |
| 20260901134929 | 81 | 67 | 6.0 | 10.0 | 0.00 | 0.00 | 0.00 | 7 | 1014.6 |
| 20260901134653 | 81 | 135 | 7.0 | 10.0 | 0.00 | 0.00 | 0.00 | 7 | 1014.7 |
| 20260901134505 | 81 | 112 | 6.0 | 9.0 | 0.00 | 0.00 | 0.00 | 7 | 1014.8 |
| 20260901134040 | 82 | 90 | 5.0 | 9.0 | 0.00 | 0.00 | 0.00 | 7 | 1015.0 |
| 20260901133653 | 83 | 112 | 3.0 | 6.0 | 0.00 | 0.00 | 0.00 | 7 | 1014.9 |
| 20260901133621 | 83 | 112 | 3.0 | 6.0 | 0.00 | 0.00 | 0.00 | 7 | 1014.9 |
| 20260901133156 | 82 | 90 | 4.0 | 6.0 | 0.00 | 0.00 | 0.00 | 7 | 1014.8 |
| 20260901132701 | 82 | 90 | 5.0 | 9.0 | 0.00 | 0.00 | 0.00 | 7 | 1015.1 |
| 20260901132312 | 82 | 45 | 7.0 | 9.0 | 0.00 | 0.00 | 0.00 | 7 | 1015.1 |
| 20260901131850 | 82 | 112 | 6.0 | 9.0 | 0.00 | 0.00 | 0.00 | 7 | 1015.0 |
| 20260901131436 | 82 | 90 | 7.0 | 11.0 | 0.00 | 0.00 | 0.00 | 7 | 1014.8 |
| 20260901131007 | 82 | 67 | 6.0 | 10.0 | 0.00 | 0.00 | 0.00 | 7 | 1015.1 |
| 20260901130548 | 82 | 67 | 3.0 | 6.0 | 0.00 | 0.00 | 0.00 | 7 | 1015.2 |
| 20260901130122 | 82 | 90 | 7.0 | 10.0 | 0.00 | 0.00 | 0.00 | 7 | 1015.0 |
| 20260901125659 | 83 | 112 | 7.0 | 10.0 | 0.00 | 0.00 | 0.00 | 7 | 1014.8 |
| 20260901125657 | 83 | 112 | 7.0 | 10.0 | 0.00 | 0.00 | 0.00 | 7 | 1014.8 |
| 20260901125523 | 83 | 112 | 7.0 | 10.0 | 0.00 | 0.00 | 0.00 | 7 | 1014.8 |
| 20260901125041 | 84 | 112 | 7.0 | 11.0 | 0.00 | 0.00 | 0.00 | 6 | 1014.6 |
| 20260901124548 | 84 | 112 | 9.0 | 12.0 | 0.00 | 0.00 | 0.00 | 6 | 1014.6 |
| 20260901124123 | 84 | 90 | 9.0 | 12.0 | 0.00 | 0.00 | 0.00 | 6 | 1014.7 |
| 20260901123703 | 84 | 67 | 6.0 | 8.0 | 0.00 | 0.00 | 0.00 | 6 | 1014.7 |
| 20260901123238 | 83 | 67 | 7.0 | 10.0 | 0.00 | 0.00 | 0.00 | 6 | 1014.5 |
| 20260901122743 | 84 | 67 | 6.0 | 10.0 | 0.00 | 0.00 | 0.00 | 6 | 1014.5 |
| 20260901122503 | 84 | 90 | 7.0 | 12.0 | 0.00 | 0.00 | 0.00 | 6 | 1014.4 |
| 20260901122345 | 84 | 90 | 4.0 | 6.0 | 0.00 | 0.00 | 0.00 | 6 | 1014.4 |
| 20260901121929 | 83 | 67 | 10.0 | 13.0 | 0.00 | 0.00 | 0.00 | 6 | 1014.5 |
| 20260901121517 | 84 | 112 | 9.0 | 12.0 | 0.00 | 0.00 | 0.00 | 6 | 1014.5 |
| 20260901121032 | 83 | 90 | 8.0 | 11.0 | 0.00 | 0.00 | 0.00 | 6 | 1014.7 |
| 20260901120649 | 84 | 90 | 6.0 | 8.0 | 0.00 | 0.00 | 0.00 | 7 | 1014.8 |
| 20260901120615 | 84 | 90 | 6.0 | 8.0 | 0.00 | 0.00 | 0.00 | 7 | 1014.8 |
| 20260901120149 | 84 | 90 | 6.0 | 9.0 | 0.00 | 0.00 | 0.00 | 6 | 1015.0 |
| 20260901115656 | 83 | 90 | 7.0 | 10.0 | 0.00 | 0.00 | 0.00 | 7 | 1015.0 |
| 20260901115215 | 83 | 67 | 7.0 | 10.0 | 0.00 | 0.00 | 0.00 | 7 | 1015.0 |
| 20260901114753 | 83 | 67 | 7.0 | 9.0 | 0.00 | 0.00 | 0.00 | 7 | 1014.9 |
| 20260901114339 | 83 | 90 | 4.0 | 6.0 | 0.00 | 0.00 | 0.00 | 7 | 1015.1 |
| 20260901113910 | 83 | 90 | 5.0 | 6.0 | 0.00 | 0.00 | 0.00 | 7 | 1015.0 |
| 20260901113508 | 83 | 112 | 7.0 | 9.0 | 0.00 | 0.00 | 0.00 | 6 | 1015.2 |
| 20260901113451 | 83 | 67 | 6.0 | 9.0 | 0.00 | 0.00 | 0.00 | 7 | 1015.4 |
| 20260901113025 | 83 | 67 | 5.0 | 6.0 | 0.00 | 0.00 | 0.00 | 7 | 1015.4 |
| 20260901112601 | 83 | 90 | 3.0 | 6.0 | 0.00 | 0.00 | 0.00 | 7 | 1015.6 |
| 20260901112046 | 82 | 135 | 5.0 | 8.0 | 0.00 | 0.00 | 0.00 | 7 | 1015.5 |
| 20260901111556 | 82 | 90 | 6.0 | 9.0 | 0.00 | 0.00 | 0.00 | 7 | 1015.5 |
| 20260901111134 | 83 | 112 | 5.0 | 6.0 | 0.00 | 0.00 | 0.00 | 7 | 1015.4 |
| 20260901110655 | 82 | 90 | 4.0 | 6.0 | 0.00 | 0.00 | 0.00 | 7 | 1015.4 |
| 20260901110211 | 82 | 112 | 4.0 | 8.0 | 0.00 | 0.00 | 0.00 | 7 | 1015.7 |
| 20260901105746 | 82 | 112 | 5.0 | 8.0 | 0.00 | 0.00 | 0.00 | 7 | 1015.3 |
| 20260901105514 | 82 | 112 | 6.0 | 9.0 | 0.00 | 0.00 | 0.00 | 7 | 1015.3 |
| 20260901105051 | 82 | 90 | 7.0 | 10.0 | 0.00 | 0.00 | 0.00 | 7 | 1015.3 |
| 20260901104601 | 82 | 90 | 10.0 | 13.0 | 0.00 | 0.00 | 0.00 | 7 | 1015.2 |
| 20260901104132 | 82 | 90 | 6.0 | 8.0 | 0.00 | 0.00 | 0.00 | 7 | 1015.3 |
| 20260901103713 | 83 | 67 | 6.0 | 9.0 | 0.00 | 0.00 | 0.00 | 7 | 1015.5 |
| 20260901103249 | 84 | 90 | 6.0 | 9.0 | 0.00 | 0.00 | 0.00 | 7 | 1015.5 |
| 20260901102754 | 84 | 135 | 9.0 | 12.0 | 0.00 | 0.00 | 0.00 | 7 | 1015.5 |
| 20260901102348 | 84 | 67 | 7.0 | 10.0 | 0.00 | 0.00 | 0.00 | 7 | 1015.6 |
| 20260901101933 | 83 | 67 | 9.0 | 11.0 | 0.00 | 0.00 | 0.00 | 7 | 1015.6 |
| 20260901101522 | 82 | 90 | 6.0 | 8.0 | 0.00 | 0.00 | 0.00 | 7 | 1015.7 |
| 20260901101023 | 82 | 112 | 5.0 | 9.0 | 0.00 | 0.00 | 0.00 | 7 | 1015.6 |
| 20260901100533 | 82 | 90 | 9.0 | 13.0 | 0.00 | 0.00 | 0.00 | 7 | 1015.6 |
| 20260901100105 | 82 | 90 | 5.0 | 8.0 | 0.00 | 0.00 | 0.00 | 7 | 1015.6 |
| 20260901095658 | 82 | 67 | 7.0 | 9.0 | 0.00 | 0.00 | 0.00 | 7 | 1015.7 |
| 20260901095455 | 82 | 67 | 5.0 | 8.0 | 0.00 | 0.00 | 0.00 | 7 | 1015.7 |
| 20260901095036 | 83 | 112 | 8.0 | 10.0 | 0.00 | 0.00 | 0.00 | 7 | 1015.6 |
| 20260901094616 | 83 | 112 | 6.0 | 9.0 | 0.00 | 0.00 | 0.00 | 7 | 1015.7 |
| 20260901094132 | 82 | 90 | 8.0 | 12.0 | 0.00 | 0.00 | 0.00 | 7 | 1015.7 |
| 20260901093715 | 82 | 112 | 8.0 | 10.0 | 0.00 | 0.00 | 0.00 | 7 | 1015.5 |
| 20260901093251 | 82 | 90 | 6.0 | 10.0 | 0.00 | 0.00 | 0.00 | 7 | 1015.6 |
| 20260901092755 | 82 | 112 | 3.0 | 6.0 | 0.00 | 0.00 | 0.00 | 7 | 1015.6 |
| 20260901092311 | 82 | 90 | 6.0 | 9.0 | 0.00 | 0.00 | 0.00 | 7 | 1015.6 |
| 20260901091844 | 83 | 112 | 3.0 | 4.0 | 0.00 | 0.00 | 0.00 | 7 | 1015.6 |
| 20260901091432 | 84 | 90 | 2.0 | 4.0 | 0.00 | 0.00 | 0.00 | 7 | 1015.7 |
| 20260901091001 | 84 | 270 | 1.0 | 3.0 | 0.00 | 0.00 | 0.00 | 7 | 1015.7 |
| 20260901090559 | 83 | 112 | 4.0 | 6.0 | 0.00 | 0.00 | 0.00 | 7 | 1015.6 |
| 20260901085651 | 82 | 90 | 4.0 | 6.0 | 0.00 | 0.00 | 0.00 | 7 | 1015.6 |
| 20260901085449 | 82 | 90 | 5.0 | 6.0 | 0.00 | 0.00 | 0.00 | 7 | 1015.4 |
| 20260901085015 | 82 | 90 | 3.0 | 4.0 | 0.00 | 0.00 | 0.00 | 8 | 1015.5 |
| 20260901084740 | 81 | 112 | 3.0 | 6.0 | 0.00 | 0.00 | 0.00 | 8 | 1015.6 |
| 20260901084552 | 81 | 112 | 5.0 | 8.0 | 0.00 | 0.00 | 0.00 | 8 | 1015.6 |
| 20260901084127 | 81 | 112 | 3.0 | 4.0 | 0.00 | 0.00 | 0.00 | 8 | 1015.6 |
| 20260901083742 | 80 | 67 | 2.0 | 3.0 | 0.00 | 0.00 | 0.00 | 8 | 1015.5 |
| 20260901083708 | 80 | 67 | 2.0 | 3.0 | 0.00 | 0.00 | 0.00 | 8 | 1015.5 |
| 20260901083243 | 80 | 45 | 0.0 | 2.0 | 0.00 | 0.00 | 0.00 | 8 | 1015.6 |
| 20260901082748 | 80 | 90 | 2.0 | 3.0 | 0.00 | 0.00 | 0.00 | 8 | 1015.2 |
| 20260901082329 | 80 | 112 | 3.0 | 4.0 | 0.00 | 0.00 | 0.00 | 8 | 1015.2 |
| 20260901082306 | 81 | 112 | 3.0 | 4.0 | 0.00 | 0.00 | 0.00 | 8 | 1015.3 |
| 20260901081840 | 82 | 22 | 0.0 | 1.0 | 0.00 | 0.00 | 0.00 | 8 | 1015.3 |
| 20260901081428 | 82 | 0 | 0.0 | 0.0 | 0.00 | 0.00 | 0.00 | 8 | 1015.4 |
| 20260901081409 | 81 | 67 | 0.0 | 2.0 | 0.00 | 0.00 | 0.00 | 8 | 1015.3 |
| 20260901081008 | 80 | 0 | 0.0 | 1.0 | 0.00 | 0.00 | 0.00 | 8 | 1015.4 |
| 20260901080549 | 80 | 0 | 0.0 | 0.0 | 0.00 | 0.00 | 0.00 | 8 | 1015.1 |
| 20260901080122 | 79 | 0 | 0.0 | 0.0 | 0.00 | 0.00 | 0.00 | 8 | 1014.8 |
| 20260901075659 | 79 | 0 | 0.0 | 0.0 | 0.00 | 0.00 | 0.00 | 8 | 1015.2 |
| 20260901075657 | 79 | 0 | 0.0 | 0.0 | 0.00 | 0.00 | 0.00 | 8 | 1015.2 |
| 20260901075532 | 79 | 0 | 0.0 | 0.0 | 0.00 | 0.00 | 0.00 | 8 | 1015.2 |
| 20260901075456 | 79 | 0 | 0.0 | 0.0 | 0.00 | 0.00 | 0.00 | 8 | 1015.0 |
| 20260901075005 | 79 | 157 | 0.0 | 1.0 | 0.00 | 0.00 | 0.00 | 8 | 1015.3 |
| 20260901074554 | 78 | 157 | 0.0 | 2.0 | 0.00 | 0.00 | 0.00 | 8 | 1015.3 |
| 20260901074522 | 78 | 157 | 0.0 | 2.0 | 0.00 | 0.00 | 0.00 | 8 | 1015.3 |
| 20260901074120 | 78 | 67 | 1.0 | 2.0 | 0.00 | 0.00 | 0.00 | 9 | 1015.2 |
| 20260901073656 | 78 | 0 | 0.0 | 0.0 | 0.00 | 0.00 | 0.00 | 9 | 1015.1 |
| 20260901073201 | 78 | 0 | 0.0 | 1.0 | 0.00 | 0.00 | 0.00 | 9 | 1015.1 |
| 20260901072704 | 77 | 0 | 1.0 | 2.0 | 0.00 | 0.00 | 0.00 | 9 | 1015.2 |
| 20260901072408 | 77 | 45 | 1.0 | 2.0 | 0.00 | 0.00 | 0.00 | 9 | 1015.2 |
| 20260901072312 | 77 | 45 | 1.0 | 2.0 | 0.00 | 0.00 | 0.00 | 9 | 1015.2 |
| 20260901071913 | 76 | 0 | 1.0 | 2.0 | 0.00 | 0.00 | 0.00 | 9 | 1015.2 |
| 20260901071437 | 76 | 315 | 1.0 | 2.0 | 0.00 | 0.00 | 0.00 | 9 | 1015.0 |
| 20260901071007 | 76 | 337 | 1.0 | 2.0 | 0.00 | 0.00 | 0.00 | 9 | 1015.1 |
| 20260901070549 | 76 | 315 | 1.0 | 2.0 | 0.00 | 0.00 | 0.00 | 9 | 1015.0 |
| 20260901070122 | 75 | 0 | 0.0 | 0.0 | 0.00 | 0.00 | 0.00 | 9 | 1014.9 |
| 20260901065657 | 75 | 292 | 0.0 | 1.0 | 0.00 | 0.00 | 0.00 | 9 | 1014.7 |
| 20260901065151 | 75 | 0 | 0.0 | 1.0 | 0.00 | 0.00 | 0.00 | 9 | 1014.6 |
| 20260901064738 | 75 | 247 | 0.0 | 1.0 | 0.00 | 0.00 | 0.00 | 9 | 1014.5 |
| 20260901064703 | 75 | 247 | 0.0 | 1.0 | 0.00 | 0.00 | 0.00 | 9 | 1014.5 |
| 20260901064232 | 75 | 315 | 1.0 | 2.0 | 0.00 | 0.00 | 0.00 | 9 | 1014.4 |
| 20260901063849 | 75 | 315 | 3.0 | 3.0 | 0.00 | 0.00 | 0.00 | 9 | 1014.5 |
| 20260901063815 | 75 | 315 | 3.0 | 3.0 | 0.00 | 0.00 | 0.00 | 9 | 1014.5 |
| 20260901063350 | 75 | 315 | 2.0 | 2.0 | 0.00 | 0.00 | 0.00 | 9 | 1014.5 |
| 20260901062855 | 75 | 0 | 0.0 | 1.0 | 0.00 | 0.00 | 0.00 | 9 | 1014.3 |
| 20260901062437 | 75 | 90 | 1.0 | 2.0 | 0.00 | 0.00 | 0.00 | 9 | 1014.4 |
| 20260901062012 | 75 | 0 | 0.0 | 1.0 | 0.00 | 0.00 | 0.00 | 9 | 1014.2 |
| 20260901061528 | 74 | 292 | 0.0 | 1.0 | 0.00 | 0.00 | 0.00 | 9 | 1014.4 |
| 20260901061053 | 74 | 270 | 1.0 | 2.0 | 0.00 | 0.00 | 0.00 | 9 | 1014.4 |
| 20260901060606 | 74 | 0 | 0.0 | 2.0 | 0.00 | 0.00 | 0.00 | 9 | 1014.7 |
| 20260901060534 | 74 | 0 | 0.0 | 2.0 | 0.00 | 0.00 | 0.00 | 9 | 1014.7 |
| 20260901060118 | 74 | 0 | 0.0 | 1.0 | 0.00 | 0.00 | 0.00 | 9 | 1014.4 |
| 20260901055704 | 74 | 0 | 0.0 | 0.0 | 0.00 | 0.00 | 0.00 | 9 | 1014.3 |
| 20260901055453 | 74 | 0 | 0.0 | 0.0 | 0.00 | 0.00 | 0.00 | 9 | 1014.3 |
| 20260901055422 | 74 | 0 | 0.0 | 0.0 | 0.00 | 0.00 | 0.00 | 9 | 1014.3 |
| 20260901054949 | 74 | 292 | 0.0 | 1.0 | 0.00 | 0.00 | 0.00 | 9 | 1014.2 |
| 20260901054544 | 74 | 292 | 3.0 | 3.0 | 0.00 | 0.00 | 0.00 | 9 | 1014.5 |
| 20260901054502 | 74 | 270 | 3.0 | 4.0 | 0.00 | 0.00 | 0.00 | 9 | 1014.4 |
| 20260901054105 | 74 | 292 | 3.0 | 3.0 | 0.00 | 0.00 | 0.00 | 9 | 1014.4 |
| 20260901053648 | 74 | 270 | 3.0 | 6.0 | 0.00 | 0.00 | 0.00 | 9 | 1014.3 |
| 20260901053617 | 74 | 270 | 3.0 | 6.0 | 0.00 | 0.00 | 0.00 | 9 | 1014.3 |
| 20260901053148 | 74 | 292 | 2.0 | 3.0 | 0.00 | 0.00 | 0.00 | 9 | 1013.9 |
| 20260901052658 | 74 | 292 | 3.0 | 4.0 | 0.00 | 0.00 | 0.00 | 9 | 1014.2 |
| 20260901052411 | 74 | 67 | 1.0 | 2.0 | 0.00 | 0.00 | 0.00 | 9 | 1013.6 |
| 20260901052340 | 74 | 67 | 1.0 | 2.0 | 0.00 | 0.00 | 0.00 | 9 | 1013.6 |
| 20260901051925 | 73 | 67 | 1.0 | 2.0 | 0.00 | 0.00 | 0.00 | 9 | 1013.8 |
| 20260901051513 | 73 | 337 | 1.0 | 1.0 | 0.00 | 0.00 | 0.00 | 9 | 1014.0 |
| 20260901051028 | 73 | 0 | 0.0 | 1.0 | 0.00 | 0.00 | 0.00 | 9 | 1014.0 |
| 20260901050612 | 73 | 22 | 0.0 | 1.0 | 0.00 | 0.00 | 0.00 | 9 | 1014.1 |
| 20260901050147 | 73 | 337 | 0.0 | 2.0 | 0.00 | 0.00 | 0.00 | 9 | 1014.1 |
| 20260901045653 | 74 | 90 | 1.0 | 2.0 | 0.00 | 0.00 | 0.00 | 9 | 1013.8 |
| 20260901045451 | 74 | 90 | 1.0 | 2.0 | 0.00 | 0.00 | 0.00 | 9 | 1013.8 |
| 20260901044955 | 74 | 270 | 0.0 | 2.0 | 0.00 | 0.00 | 0.00 | 9 | 1013.7 |